Regional Weather Roundup
Issued by NWS Wakefield, VA

Home | Current Version | Previous Version | Graphics & Text | Print | Product List | Glossary On
Versions: 1 2 3 4 5 6 7 8 9 10 11 12 13 14 15 16 17 18 19 20 21 22 23 24 25 26 27 28 29 30 31 32
000
ASUS41 KAKQ 211210
RWRAKQ

REGIONAL WEATHER ROUNDUP
NATIONAL WEATHER SERVICE WAKEFIELD VA
800 AM EDT TUE OCT 21 2014

Note: "fair" indicates few or no clouds below 12,000 feet with no
significant weather and/or obstructions to visibility. * = Denotes
station may not report precipitation (e.g., rain,snow,etc.),
thunder or fog.

VAZ042-051-052>054-056-211300-
NORTHERN VIRGINIA

CITY           SKY/WX    TMP DP  RH WIND       PRES   REMARKS
WASH NATIONAL  PTCLDY    56  47  71 CALM      29.87S
DULLES         PTCLDY    43  43 100 CALM      29.87R
FORT BELVOIR   FOG       46  46 100 CALM      29.88R VSB 1
QUANTICO       PTCLDY    52  48  86 NW3       29.89R
FREDERICKSBRG* CLEAR     53  51  94 CALM      29.87R
STAFFORD*      CLEAR     47  47 100 CALM      29.91S FOG
WARRENTON        N/A     41  41 100 CALM      29.87R FOG
CULPEPER*      PTCLDY    45  45 100 CALM      29.89R FOG
MANASSAS*      NOT AVBL
LEESBURG*      CLEAR     46  46 100 CALM      29.88S
WINCHESTER     PTCLDY    54  45  71 W7        29.86S
FRONT ROYAL*   MOSUNNY   50  46  87 S3        29.86R
LURAY*         CLOUDY    52  50  93 SW5       29.88R
$$

VAZ048-049-060>072-079>083-211300-
CENTRAL AND SOUTH CENTRAL VIRGINIA...AND NORTH CENTRAL NORTH CAROLINA

CITY           SKY/WX    TMP DP  RH WIND       PRES   REMARKS
RICHMOND       PTCLDY    52  47  83 S3        29.89R
CHESTERFIELD*  PTSUNNY  N/A N/A N/A W3        29.90R
PETERSBURG*    CLEAR     49  47  93 CALM      29.90S
HANOVER        PTCLDY    53  49  86 CALM      29.90R
TAPPAHANNOCK*  CLOUDY    53  46  77 CALM      29.89R
CHARLOTTSVILLE PTCLDY    52  47  83 CALM      29.88S
ORANGE*        PTCLDY    46  45  93 S3        29.89R
LOUISA*        CLEAR     52  48  87 SW3       29.87S
FARMVILLE*     CLEAR     46  46 100 CALM      29.88S
CREWE*         SUNNY     53  48  84 CALM      29.89S
FORT PICKETT*  SUNNY     51  49  93 W3        29.90S
LUNENBURG*     SUNNY     52  50  93 CALM      29.90S
SOUTH HILL*    CLEAR     54  54 100 CALM      29.96R
LAWRENCEVILLE* SUNNY     49  48  98 CALM      29.90S
ROANOKE RAPIDS MOSUNNY   52  50  93 SW3       29.92R
RALEIGH        PTCLDY    52  48  86 SW3       29.93S
$$

VAZ088>098-211300-
SOUTHEAST VIRGINIA

CITY           SKY/WX    TMP DP  RH WIND       PRES   REMARKS
NORFOLK        MOCLDY    58  55  90 SW9       29.91S
VIRGINIA BEACH MOCLDY    61  56  83 SW8       29.91S
NORFOLK NAVAL  MOCLDY    62  55  77 VRB3      29.92R
WEST POINT*    MOCLDY    58  52  79 S5        29.91R
NEWPORT NEWS   CLOUDY    61  55  81 SW6       29.91R
LANGLEY AFB    CLOUDY    59  59 100 S7        29.91R
FORT EUSTIS    MOCLDY    59  59 100 S5        29.90R
WILLIAMSBURG*  MOCLDY    57  55  94 S3        29.91R
HR EXEC AP*    PTSUNNY   55  54  94 CALM      29.93S
FRANKLIN*      MOCLDY    57  57 100 S3        29.92R
WAKEFIELD      CLOUDY    56  53  90 S3        29.91R
$$

VAZ020-022-025-037-045-211300-
WEST CENTRAL AND SOUTHWEST VIRGINIA

CITY           SKY/WX    TMP DP  RH WIND       PRES   REMARKS
STAUNTON*      MOCLDY    50  45  81 S3        29.91S
HOT SPRINGS VA FOG       45  45  99 W10       29.89S VSB 1
LYNCHBURG      CLEAR     44  43  96 CALM      29.92R
DANVILLE       CLEAR     48  46  93 S3        29.92S
SOUTH BOSTON*  NOT AVBL
MARTINSVILLE   PTCLDY    44  44 100 CALM      29.95S
ROANOKE        PTCLDY    50  45  83 W7        29.94S
BLACKSBURG       N/A     43  43 100 CALM      29.95F FOG
DUBLIN*        PTCLDY    48  48 100 W6        29.95S FOG
MARION*        CLOUDY    51  49  92 W10G18    29.98R FOG
HILLSVILLE*    CLEAR     49  46  89 CALM      29.95S
RICHLANDS*     CLOUDY    53  49  89 SW5       29.96S
WISE*          CLOUDY    48  48 100 SW6       29.98R FOG
ABINGDON*      CLOUDY    52  52 100 W6        29.98R FOG
$$

MDZ021>025-VAZ099-100-211300-
SOUTHERN MARYLAND AND THE DELMARVA PENINSULA

CITY           SKY/WX    TMP DP  RH WIND       PRES   REMARKS
PATUXENT RIVER MOCLDY    57  49  74 SW6       29.87R
BAY BRIDGE APT   N/A     55  46  71 W3        29.87S
LEONARDTOWN    MOCLDY    54  48  82 CALM      29.88S
DOVER          MOCLDY    54  52  95 S5        29.85R
GEORGETOWN     MOCLDY    56  53  90 CALM      29.88S
EASTON         CLEAR     52  52 100 CALM      29.90S
CAMBRIDGE      MOCLDY    54  52  94 SE3       29.86F
SALISBURY      MOCLDY    59  55  87 S6        29.89R
OCEAN CITY     MOCLDY    60  56  86 SW8       29.90R
WALLOPS ISLAND CLOUDY    60  56  86 S6        29.90R
ACCOMACK*      CLOUDY    59  55  88 S3        29.90R
$$

NCZ012>017-030>032-211300-
EASTERN NORTH CAROLINA

CITY           SKY/WX    TMP DP  RH WIND       PRES   REMARKS
ELIZABETH CITY MOCLDY    62  58  86 SW5       29.92S
AHOSKIE*       PTCLDY    54  53  97 CALM      29.93S
EDENTON*       MOCLDY    61  59  92 SW5       29.93S
CURRITUCK*     MOCLDY    59  57  92 CALM      29.93R
KILL DEVIL HLS MOCLDY    63  62  95 CALM      29.91S
MANTEO         MOCLDY    64  62  91 SW5       29.93S
CAPE HATTERAS  MOCLDY    64  63  96 N3        29.92F
TARBORO*       MOSUNNY   54  53  96 CALM      29.93S FOG
GOLDSBORO      CLEAR     53  53  98 CALM      29.92S
WASHINGTON     PTCLDY    55  54  97 CALM      29.94S
GREENVILLE     CLEAR     55  55 100 CALM      29.95S
NEW BERN       MOCLDY    55  52  89 CALM      29.96R
WILMINGTON     CLEAR     55  54  96 CALM      29.95R
$$

VAZ048-211300-
ELSEWHERE

CITY           SKY/WX    TMP DP  RH WIND       PRES   REMARKS
HARRISBURG PA  MOCLDY    50  49  96 E3        29.86R FOG
BALTIMORE      PTCLDY    46  45  96 CALM      29.86S
ANNAPOLIS      PTCLDY    54  48  80 CALM      29.87R
ANDREWS AFB    CLOUDY    49  47  92 CALM      29.86S
WILMINGTON DE  CLEAR     49  47  93 NW5       29.88R
PHILADELPHIA   PTCLDY    54  48  80 NE5       29.88R
WILDWOOD NJ*   MOCLDY    54  48  82 CALM      29.88S
ATLANTIC CITY  MOCLDY    51  49  92 CALM      29.88S
HENDERSON NC   CLEAR     48  47  95 SW6       29.92S
GREENSBORO     PTCLDY    48  47  96 CALM      29.93R
ROCKY MOUNT    PTCLDY    52  51  97 CALM      29.93R
FAYETTEVILLE   CLEAR     55  54  96 W7        29.93S
CHARLOTTE      CLEAR     49  46  90 CALM      29.96R
$$

VAZ100-211300-
MARINE

STATION/POSITION TIME  TEMP    WIND        PRES    WAVE   SWELL
                       AIR SEA DIR/SP/G            HT/PER HT/PER
                 (UTC) (F)     (DEG/KT/KT) (MB)    (FT/S) (FT/S)
44066 TX TWR #4  1200   65 66  190/  6/  8 1012.4F   4/ 6   3/ 6
CAPE MAY NJ      1200   61 66  180/  4/  6 1011.1R
LEWES DE         1200   59 63  200/  5/  6 1011.2F
15NM E FENWICK I 1200   65 66  200/  8/ 12 1011.9R   3/ 5   3/ 5
OCEAN-CITY-INLET 1200   63 65  230/ 10/ 12 1011.8R
WACHAPREAGUE VA  1200   61 62  220/  2/  4 1012.5R
THOMAS POINT MD  1200   56 63  290/  6/  8 1012.5R
GOOSES REEF MD   1200   60     270/ 10/ 12 1011.6R
COVE POINT MD    1200   58     270/  9/ 12 1011.2R
SOLOMONS ISLAND  1200      66                N/A
BISHOPS HEAD MD  1200   62 58  220/  6/  8 1011.1R
PINEY POINT MD   1200          280/  8/  9   N/A
POTOMAC MD       1200   61     240/ 10/ 14 1010.6S
CAMBRIDGE MD     1200   56 63  110/  2/  3 1011.0R
LEWISETTA VA     1200   58 62  230/  8/ 10 1011.2R
RAPPAHANNOCK LGT 1200          190/ 12/ 13 1012.6R
STINGRAY PT      1200   63     230/ 10/ 12 1012.8R
YORK RVR RNG VA  1200   62     220/ 10/ 11 1011.9R
YORKTOWN VA      1200   60 67  220/  7/  8 1012.0R
JAMESTOWN VA     1200   57     210/  4/  6   N/A
DOMINION TERM VA 1200   60     200/  6/  8 1012.7R
KIPTOPEKE VA     1200      69  220/ 10/ 13   N/A
CHES BAY BRIDGE  1200   60 68  210/ 10/ 12 1011.9F
CHESAPEAKE LGHT  1100   64     230/ 14/ 15 1013.1S
WILLOUBY STN VA  1200   61     200/  8/  9 1011.3R
S CRANEY ISL VA  1200          170/  5/  8 1012.6R
CAPE HENRY BUOY  1200      68                N/A     2/11   2/11
1ST LANDING BUOY 1200   62     220/ 12/ 14 1012.3S
CAPE CHARLES BUO 1200      68                N/A     2/11   2/11
64NM E OF VA BCH 1200   68 69  210/ 12/ 14 1012.5F   3/ 6   2/ 6
DUCK PIER NC     1200   65 68  200/  8/ 10 1012.4S
44100 DUCK FRF   1200      71                N/A     3/ 5   2/12
44056 DUCK FRF   1200                        N/A     2/11   2/11
OREGON INLET NC  1200   65 66  160/  4/  5 1013.3R
HATTERAS NC      1200   67 71  300/  4/  7 1013.6F
DIAMOND SHLS NC  1200   69     300/ 12/ 16 1013.0S   4/ 5   2/ 6
CAPE LOOKOUT NC  1100   67     300/  7/  9 1013.9R
$$



USA.gov is the U.S. government's official web portal to all federal, state and local government web resources and services.